Location: Fornova de Taro
(44.7000°N, 10.1000°E)
Time: 13:06:23
(UTC+00:00)

Cosmos 292 Rocket - Visible Passes

Search period start: 26 September 2022 00:00
Search period end: 06 October 2022 00:00
Orbit: 672 x 694 km, 74.1° (Epoch: 25 September)

Date Brightness Start Highest point End Pass type
(mag) Time Alt. Az. Time Alt. Az. Time Alt. Az.
26 Sep 5.3 01:59:57 33° NNE 01:59:57 33° NNE 02:02:39 10° NNE visible
26 Sep 5.5 03:38:26 16° NW 03:38:36 16° NW 03:41:37 10° NNW visible
27 Sep 6.7 00:58:51 13° NE 00:58:51 13° NE 00:59:30 10° NE visible
27 Sep 5.1 02:37:20 29° NNW 02:37:20 29° NNW 02:40:10 10° N visible
28 Sep 6.1 01:36:13 21° NNE 01:36:13 21° NNE 01:37:50 10° NNE visible
28 Sep 5.7 03:14:42 16° NW 03:14:42 16° NW 03:16:51 10° NNW visible
29 Sep 5.8 02:13:32 21° N 02:13:32 21° N 02:15:22 10° N visible
30 Sep 6.6 01:12:20 14° NNE 01:12:20 14° NNE 01:13:00 10° NNE visible
30 Sep 6.0 02:50:49 14° NNW 02:50:49 14° NNW 02:52:06 10° NNW visible
01 Oct 6.3 01:49:36 15° N 01:49:36 15° N 01:50:33 10° N visible
02 Oct 6.3 02:26:51 12° NNW 02:26:51 12° NNW 02:27:19 10° N visible
03 Oct 6.7 01:25:35 11° N 01:25:35 11° N 01:25:44 10° N visible
